| time (UTC) | temp C | wind direction | speed KPH | gust KPH | rain 1hr cm | rain 24hr cm | rain mn cm | humidity % | barometer mb |
| 20260505080204 | 21 | 186 | 1.6 | 14.5 | 0.00 | 0.00 | 0.00 | 83 | 1004.4 |
| 20260505080003 | 21 | 165 | 1.6 | 14.5 | 0.00 | 0.00 | 0.00 | 83 | 1004.6 |
| 20260505075703 | 21 | 150 | 9.7 | 12.9 | 0.00 | 0.00 | 0.00 | 82 | 1004.7 |
| 20260505075403 | 21 | 204 | 1.6 | 16.1 | 0.00 | 0.00 | 0.00 | 82 | 1004.8 |
| 20260505075204 | 21 | 182 | 8.0 | 16.1 | 0.00 | 0.00 | 0.00 | 82 | 1004.7 |
| 20260505074704 | 21 | 256 | 9.7 | 16.1 | 0.00 | 0.00 | 0.00 | 82 | 1004.7 |
| 20260505074503 | 21 | 228 | 1.6 | 16.1 | 0.00 | 0.00 | 0.00 | 82 | 1005.0 |
| 20260505074203 | 21 | 210 | 8.0 | 14.5 | 0.00 | 0.00 | 0.00 | 81 | 1005.1 |
| 20260505073604 | 21 | 209 | 1.6 | 14.5 | 0.00 | 0.00 | 0.00 | 81 | 1005.4 |
| 20260505073204 | 21 | 187 | 3.2 | 14.5 | 0.00 | 0.00 | 0.00 | 81 | 1005.1 |
| 20260505072724 | 21 | 242 | 1.6 | 14.5 | 0.00 | 0.00 | 0.00 | 81 | 1005.4 |
| 20260505072704 | 21 | 221 | 4.8 | 14.5 | 0.00 | 0.00 | 0.00 | 81 | 1005.1 |
| 20260505072204 | 22 | 238 | 1.6 | 14.5 | 0.00 | 0.00 | 0.00 | 80 | 1005.1 |
| 20260505071803 | 22 | 233 | 1.6 | 12.9 | 0.00 | 0.00 | 0.00 | 80 | 1005.5 |
| 20260505071704 | 22 | 231 | 3.2 | 12.9 | 0.00 | 0.00 | 0.00 | 80 | 1005.1 |
| 20260505071204 | 22 | 198 | 4.8 | 16.1 | 0.00 | 0.00 | 0.00 | 80 | 1005.3 |
| 20260505070924 | 22 | 185 | 1.6 | 16.1 | 0.00 | 0.00 | 0.00 | 80 | 1005.4 |
| 20260505070704 | 22 | 181 | 12.9 | 16.1 | 0.00 | 0.00 | 0.00 | 80 | 1005.1 |
| 20260505070204 | 22 | 206 | 9.7 | 12.9 | 0.00 | 0.00 | 0.00 | 79 | 1005.4 |
| 20260505070024 | 22 | 190 | 1.6 | 12.9 | 0.00 | 0.00 | 0.00 | 79 | 1005.6 |
| 20260505065703 | 22 | 157 | 6.4 | 12.9 | 0.00 | 0.00 | 0.00 | 79 | 1005.5 |
| 20260505065403 | 22 | 192 | 1.6 | 12.9 | 0.00 | 0.00 | 0.00 | 79 | 1005.8 |
| 20260505065204 | 22 | 207 | 4.8 | 12.9 | 0.00 | 0.00 | 0.00 | 79 | 1005.4 |
| 20260505064703 | 22 | 144 | 3.2 | 14.5 | 0.00 | 0.00 | 0.00 | 78 | 1005.4 |
| 20260505064524 | 22 | 184 | 1.6 | 14.5 | 0.00 | 0.00 | 0.00 | 78 | 1005.7 |
| 20260505063704 | 22 | 250 | 11.3 | 12.9 | 0.00 | 0.00 | 0.00 | 78 | 1005.8 |
| 20260505063603 | 22 | 175 | 1.6 | 17.7 | 0.00 | 0.00 | 0.00 | 78 | 1005.9 |
| 20260505063203 | 22 | 151 | 11.3 | 16.1 | 0.00 | 0.00 | 0.00 | 78 | 1005.7 |
| 20260505062704 | 22 | 192 | 8.0 | 16.1 | 0.00 | 0.00 | 0.00 | 77 | 1005.8 |
| 20260505062203 | 22 | 262 | 3.2 | 16.1 | 0.00 | 0.00 | 0.00 | 77 | 1005.4 |
| 20260505061803 | 22 | 175 | 1.6 | 19.3 | 0.00 | 0.00 | 0.00 | 77 | 1005.8 |
| 20260505061204 | 22 | 208 | 4.8 | 19.3 | 0.00 | 0.00 | 0.00 | 77 | 1005.4 |
| 20260505060903 | 22 | 189 | 1.6 | 16.1 | 0.00 | 0.00 | 0.00 | 77 | 1005.7 |
| 20260505060703 | 22 | 181 | 4.8 | 16.1 | 0.00 | 0.00 | 0.00 | 76 | 1005.8 |
| 20260505060204 | 22 | 223 | 3.2 | 22.5 | 0.00 | 0.00 | 0.00 | 76 | 1005.8 |
| 20260505060003 | 22 | 206 | 1.6 | 22.5 | 0.00 | 0.00 | 0.00 | 76 | 1005.8 |
| 20260505055703 | 22 | 228 | 8.0 | 22.5 | 0.00 | 0.00 | 0.00 | 76 | 1005.8 |
| 20260505055425 | 22 | 198 | 1.6 | 16.1 | 0.00 | 0.00 | 0.00 | 76 | 1005.9 |
| 20260505055204 | 22 | 241 | 3.2 | 12.9 | 0.00 | 0.00 | 0.00 | 76 | 1005.8 |
| 20260505054704 | 22 | 172 | 3.2 | 12.9 | 0.00 | 0.00 | 0.00 | 75 | 1005.8 |
| 20260505054504 | 22 | 173 | 0.0 | 16.1 | 0.00 | 0.00 | 0.00 | 75 | 1006.1 |
| 20260505054204 | 22 | 180 | 3.2 | 16.1 | 0.00 | 0.00 | 0.00 | 75 | 1005.8 |
| 20260505053703 | 22 | 201 | 0.0 | 11.3 | 0.00 | 0.00 | 0.00 | 75 | 1006.1 |
| 20260505053625 | 22 | 180 | 0.0 | 12.9 | 0.00 | 0.00 | 0.00 | 75 | 1006.2 |
| 20260505053204 | 22 | 143 | 1.6 | 12.9 | 0.00 | 0.00 | 0.00 | 75 | 1006.1 |
| 20260505052703 | 22 | 178 | 1.6 | 17.7 | 0.00 | 0.00 | 0.00 | 74 | 1006.3 |
| 20260505052204 | 22 | 234 | 4.8 | 9.7 | 0.00 | 0.00 | 0.00 | 74 | 1006.1 |
| 20260505051804 | 22 | 196 | 1.6 | 16.1 | 0.00 | 0.00 | 0.00 | 74 | 1006.3 |
| 20260505051704 | 22 | 176 | 4.8 | 16.1 | 0.00 | 0.00 | 0.00 | 74 | 1006.1 |
| 20260505051203 | 22 | 178 | 9.7 | 16.1 | 0.00 | 0.00 | 0.00 | 74 | 1006.1 |
| 20260505050903 | 22 | 230 | 1.6 | 14.5 | 0.00 | 0.00 | 0.00 | 74 | 1006.3 |
| 20260505050704 | 22 | 192 | 8.0 | 14.5 | 0.00 | 0.00 | 0.00 | 74 | 1006.1 |
| 20260505050204 | 22 | 257 | 4.8 | 11.3 | 0.00 | 0.00 | 0.00 | 74 | 1006.0 |
| 20260505041704 | 22 | 199 | 3.2 | 14.5 | 0.00 | 0.00 | 0.00 | 71 | 1006.1 |
| 20260505040704 | 22 | 187 | 3.2 | 14.5 | 0.00 | 0.00 | 0.00 | 71 | 1006.3 |
| 20260505035704 | 23 | 138 | 3.2 | 19.3 | 0.00 | 0.00 | 0.00 | 71 | 1006.4 |
| 20260505035204 | 23 | 170 | 3.2 | 14.5 | 0.00 | 0.00 | 0.00 | 71 | 1006.2 |
| 20260505034704 | 23 | 199 | 3.2 | 14.5 | 0.00 | 0.00 | 0.00 | 71 | 1006.4 |
| 20260505034204 | 23 | 236 | 1.6 | 16.1 | 0.00 | 0.00 | 0.00 | 71 | 1006.4 |
| 20260505033704 | 22 | 220 | 4.8 | 16.1 | 0.00 | 0.00 | 0.00 | 71 | 1006.4 |
| 20260505032204 | 23 | 187 | 3.2 | 16.1 | 0.00 | 0.00 | 0.00 | 70 | 1006.5 |
| 20260505031704 | 23 | 224 | 4.8 | 16.1 | 0.00 | 0.00 | 0.00 | 70 | 1006.4 |
| 20260505031205 | 23 | 205 | 1.6 | 9.7 | 0.00 | 0.00 | 0.00 | 70 | 1006.4 |
| 20260505030704 | 23 | 169 | 4.8 | 11.3 | 0.00 | 0.00 | 0.00 | 70 | 1006.4 |
| 20260505030204 | 23 | 91 | 3.2 | 12.9 | 0.00 | 0.00 | 0.00 | 69 | 1006.4 |
| 20260505025704 | 23 | 208 | 3.2 | 8.0 | 0.00 | 0.00 | 0.00 | 69 | 1006.4 |
| 20260505024704 | 23 | 151 | 11.3 | 14.5 | 0.00 | 0.00 | 0.00 | 69 | 1006.4 |
| 20260505024503 | 23 | 146 | 1.6 | 14.5 | 0.00 | 0.00 | 0.00 | 69 | 1006.6 |
| 20260505024204 | 23 | 43 | 0.0 | 8.0 | 0.00 | 0.00 | 0.00 | 69 | 1006.5 |
| 20260505023704 | 23 | 298 | 1.6 | 11.3 | 0.00 | 0.00 | 0.00 | 69 | 1006.4 |
| 20260505023604 | 23 | 254 | 0.0 | 11.3 | 0.00 | 0.00 | 0.00 | 69 | 1006.7 |
| 20260505023203 | 23 | 246 | 0.0 | 11.3 | 0.00 | 0.00 | 0.00 | 68 | 1006.4 |
| 20260505022704 | 23 | 217 | 1.6 | 11.3 | 0.00 | 0.00 | 0.00 | 68 | 1006.5 |
| 20260505021803 | 23 | 210 | 1.6 | 12.9 | 0.00 | 0.00 | 0.00 | 68 | 1006.6 |
| 20260505021203 | 23 | 212 | 3.2 | 12.9 | 0.00 | 0.00 | 0.00 | 67 | 1006.2 |
| 20260505020904 | 23 | 193 | 1.6 | 12.9 | 0.00 | 0.00 | 0.00 | 67 | 1006.5 |
| 20260505020704 | 23 | 205 | 3.2 | 11.3 | 0.00 | 0.00 | 0.00 | 67 | 1006.1 |
| 20260505020205 | 23 | 161 | 4.8 | 9.7 | 0.00 | 0.00 | 0.00 | 67 | 1006.1 |
| 20260505020004 | 23 | 190 | 1.6 | 12.9 | 0.00 | 0.00 | 0.00 | 67 | 1006.5 |
| 20260505015704 | 23 | 225 | 9.7 | 12.9 | 0.00 | 0.00 | 0.00 | 66 | 1006.3 |
| 20260505015425 | 23 | 173 | 1.6 | 12.9 | 0.00 | 0.00 | 0.00 | 66 | 1006.3 |
| 20260505015204 | 23 | 153 | 6.4 | 12.9 | 0.00 | 0.00 | 0.00 | 66 | 1006.1 |
| 20260505014704 | 23 | 148 | 8.0 | 11.3 | 0.00 | 0.00 | 0.00 | 66 | 1006.1 |
| 20260505014524 | 23 | 146 | 1.6 | 11.3 | 0.00 | 0.00 | 0.00 | 66 | 1006.5 |
| 20260505014204 | 23 | 208 | 3.2 | 11.3 | 0.00 | 0.00 | 0.00 | 66 | 1006.1 |
| 20260505013703 | 23 | 122 | 4.8 | 9.7 | 0.00 | 0.00 | 0.00 | 66 | 1006.1 |
| 20260505013603 | 23 | 174 | 1.6 | 9.7 | 0.00 | 0.00 | 0.00 | 66 | 1006.5 |
| 20260505013205 | 23 | 210 | 1.6 | 9.7 | 0.00 | 0.00 | 0.00 | 65 | 1006.1 |
| 20260505012725 | 24 | 190 | 1.6 | 9.7 | 0.00 | 0.00 | 0.00 | 65 | 1006.4 |
| 20260505012704 | 24 | 230 | 3.2 | 11.3 | 0.00 | 0.00 | 0.00 | 65 | 1006.1 |
| 20260505012204 | 24 | 152 | 4.8 | 12.9 | 0.00 | 0.00 | 0.00 | 65 | 1006.1 |
| 20260505011804 | 24 | 234 | 1.6 | 12.9 | 0.00 | 0.00 | 0.00 | 65 | 1006.4 |
| 20260505011704 | 24 | 245 | 3.2 | 12.9 | 0.00 | 0.00 | 0.00 | 65 | 1006.1 |
| 20260505011204 | 24 | 248 | 3.2 | 16.1 | 0.00 | 0.00 | 0.00 | 64 | 1006.1 |
| 20260505010903 | 24 | 228 | 1.6 | 16.1 | 0.00 | 0.00 | 0.00 | 64 | 1006.3 |
| 20260505010704 | 24 | 188 | 8.0 | 16.1 | 0.00 | 0.00 | 0.00 | 64 | 1006.1 |
| 20260505010204 | 24 | 263 | 3.2 | 14.5 | 0.00 | 0.00 | 0.00 | 63 | 1006.0 |
| 20260505010004 | 24 | 209 | 1.6 | 16.1 | 0.00 | 0.00 | 0.00 | 63 | 1006.4 |
| 20260505005704 | 24 | 232 | 8.0 | 14.5 | 0.00 | 0.00 | 0.00 | 63 | 1005.8 |
| 20260505005403 | 24 | 196 | 3.2 | 16.1 | 0.00 | 0.00 | 0.00 | 63 | 1006.5 |
| 20260505005204 | 25 | 185 | 11.3 | 14.5 | 0.00 | 0.00 | 0.00 | 62 | 1006.1 |
| 20260505004704 | 25 | 210 | 16.1 | 16.1 | 0.00 | 0.00 | 0.00 | 62 | 1006.1 |
| 20260505004524 | 25 | 203 | 1.6 | 16.1 | 0.00 | 0.00 | 0.00 | 62 | 1006.4 |
| 20260505004206 | 25 | 155 | 9.7 | 16.1 | 0.00 | 0.00 | 0.00 | 62 | 1005.8 |
| 20260505003704 | 25 | 246 | 0.0 | 14.5 | 0.00 | 0.00 | 0.00 | 62 | 1006.1 |
| 20260505003624 | 25 | 185 | 1.6 | 16.1 | 0.00 | 0.00 | 0.00 | 62 | 1006.5 |
| 20260505003204 | 25 | 184 | 4.8 | 16.1 | 0.00 | 0.00 | 0.00 | 61 | 1006.1 |
| 20260505002704 | 25 | 164 | 1.6 | 17.7 | 0.00 | 0.00 | 0.00 | 61 | 1006.2 |
| 20260505001804 | 25 | 179 | 1.6 | 14.5 | 0.00 | 0.00 | 0.00 | 60 | 1006.6 |
| 20260505001704 | 25 | 175 | 4.8 | 14.5 | 0.00 | 0.00 | 0.00 | 60 | 1006.2 |
| 20260505001204 | 25 | 186 | 4.8 | 19.3 | 0.00 | 0.00 | 0.00 | 59 | 1006.4 |
| 20260505000903 | 25 | 227 | 1.6 | 17.7 | 0.00 | 0.00 | 0.00 | 59 | 1006.5 |
| 20260505000704 | 26 | 232 | 3.2 | 19.3 | 0.00 | 0.00 | 0.00 | 59 | 1006.1 |
| 20260505000204 | 26 | 244 | 3.2 | 16.1 | 0.00 | 0.00 | 0.00 | 58 | 1006.1 |
| 20260505000004 | 26 | 220 | 1.6 | 16.1 | 0.00 | 0.00 | 0.00 | 58 | 1006.7 |
| 20260504235704 | 26 | 211 | 8.0 | 16.1 | 0.00 | 0.00 | 0.00 | 57 | 1006.1 |
| 20260504235204 | 26 | 231 | 8.0 | 14.5 | 0.00 | 0.00 | 0.00 | 58 | 1006.1 |
| 20260504234705 | 26 | 256 | 4.8 | 12.9 | 0.00 | 0.00 | 0.00 | 59 | 1006.8 |
| 20260504234204 | 26 | 257 | 3.2 | 16.1 | 0.00 | 0.00 | 0.00 | 59 | 1006.1 |
| 20260504233704 | 26 | 210 | 4.8 | 19.3 | 0.00 | 0.00 | 0.00 | 58 | 1006.1 |
| 20260504233203 | 26 | 176 | 4.8 | 16.1 | 0.00 | 0.00 | 0.00 | 58 | 1006.1 |
| 20260504232204 | 26 | 174 | 8.0 | 16.1 | 0.00 | 0.00 | 0.00 | 57 | 1006.1 |
| 20260504231704 | 26 | 156 | 14.5 | 24.1 | 0.00 | 0.00 | 0.00 | 57 | 1006.4 |
| 20260504231204 | 26 | 147 | 3.2 | 20.9 | 0.00 | 0.00 | 0.00 | 56 | 1006.4 |
| 20260504230704 | 27 | 233 | 8.0 | 16.1 | 0.00 | 0.00 | 0.00 | 55 | 1006.4 |
| 20260504230203 | 27 | 162 | 8.0 | 16.1 | 0.00 | 0.00 | 0.00 | 54 | 1006.4 |
| 20260504225704 | 27 | 245 | 4.8 | 16.1 | 0.00 | 0.00 | 0.00 | 56 | 1006.8 |
| 20260504225204 | 27 | 172 | 4.8 | 20.9 | 0.00 | 0.00 | 0.00 | 56 | 1006.8 |
| 20260504224704 | 27 | 226 | 6.4 | 20.9 | 0.00 | 0.00 | 0.00 | 55 | 1006.8 |
| 20260504224204 | 27 | 256 | 1.6 | 12.9 | 0.00 | 0.00 | 0.00 | 55 | 1006.8 |
| 20260504223704 | 27 | 246 | 4.8 | 16.1 | 0.00 | 0.00 | 0.00 | 54 | 1006.8 |
| 20260504223204 | 27 | 178 | 8.0 | 19.3 | 0.00 | 0.00 | 0.00 | 54 | 1006.4 |
| 20260504222704 | 27 | 195 | 8.0 | 11.3 | 0.00 | 0.00 | 0.00 | 54 | 1006.4 |
| 20260504222204 | 27 | 182 | 8.0 | 19.3 | 0.00 | 0.00 | 0.00 | 54 | 1006.6 |
| 20260504221704 | 27 | 201 | 6.4 | 16.1 | 0.00 | 0.00 | 0.00 | 55 | 1006.8 |
| 20260504221204 | 27 | 244 | 4.8 | 14.5 | 0.00 | 0.00 | 0.00 | 55 | 1006.8 |
| 20260504220704 | 27 | 172 | 8.0 | 14.5 | 0.00 | 0.00 | 0.00 | 54 | 1006.8 |
| 20260504220204 | 27 | 160 | 9.7 | 14.5 | 0.00 | 0.00 | 0.00 | 53 | 1006.8 |
| 20260504215205 | 27 | 181 | 9.7 | 11.3 | 0.00 | 0.00 | 0.00 | 52 | 1006.8 |
| 20260504214704 | 27 | 165 | 4.8 | 14.5 | 0.00 | 0.00 | 0.00 | 54 | 1007.1 |
| 20260504214204 | 27 | 245 | 9.7 | 20.9 | 0.00 | 0.00 | 0.00 | 53 | 1007.5 |
| 20260504213603 | 27 | 165 | 1.6 | 20.9 | 0.00 | 0.00 | 0.00 | 53 | 1007.9 |
| 20260504213204 | 27 | 153 | 9.7 | 14.5 | 0.00 | 0.00 | 0.00 | 53 | 1007.5 |
| 20260504212704 | 27 | 169 | 11.3 | 16.1 | 0.00 | 0.00 | 0.00 | 53 | 1007.4 |
| 20260504212204 | 27 | 233 | 3.2 | 16.1 | 0.00 | 0.00 | 0.00 | 53 | 1007.5 |
| 20260504211804 | 27 | 210 | 1.6 | 14.5 | 0.00 | 0.00 | 0.00 | 54 | 1008.1 |
| 20260504211704 | 27 | 220 | 8.0 | 14.5 | 0.00 | 0.00 | 0.00 | 53 | 1007.8 |
| 20260504211203 | 27 | 177 | 3.2 | 12.9 | 0.00 | 0.00 | 0.00 | 53 | 1007.8 |
| 20260504210903 | 27 | 204 | 1.6 | 11.3 | 0.00 | 0.00 | 0.00 | 53 | 1008.4 |
| 20260504210704 | 27 | 212 | 6.4 | 11.3 | 0.00 | 0.00 | 0.00 | 52 | 1007.8 |
| 20260504210204 | 27 | 159 | 9.7 | 20.9 | 0.00 | 0.00 | 0.00 | 53 | 1007.8 |
| 20260504210004 | 27 | 212 | 1.6 | 20.9 | 0.00 | 0.00 | 0.00 | 53 | 1008.5 |
| 20260504205704 | 27 | 230 | 8.0 | 20.9 | 0.00 | 0.00 | 0.00 | 52 | 1008.0 |
| 20260504205403 | 27 | 215 | 1.6 | 20.9 | 0.00 | 0.00 | 0.00 | 52 | 1008.6 |
| 20260504204704 | 27 | 214 | 4.8 | 12.9 | 0.00 | 0.00 | 0.00 | 53 | 1008.1 |
| 20260504204503 | 27 | 193 | 1.6 | 19.3 | 0.00 | 0.00 | 0.00 | 53 | 1008.8 |
| 20260504204204 | 27 | 172 | 8.0 | 20.9 | 0.00 | 0.00 | 0.00 | 51 | 1008.1 |
| 20260504203624 | 27 | 226 | 1.6 | 24.1 | 0.00 | 0.00 | 0.00 | 52 | 1009.0 |
| 20260504203204 | 27 | 262 | 11.3 | 24.1 | 0.00 | 0.00 | 0.00 | 50 | 1008.5 |
| 20260504202704 | 27 | 217 | 4.8 | 20.9 | 0.00 | 0.00 | 0.00 | 52 | 1008.5 |
| 20260504202205 | 27 | 172 | 8.0 | 20.9 | 0.00 | 0.00 | 0.00 | 50 | 1008.5 |
| 20260504201803 | 27 | 207 | 1.6 | 19.3 | 0.00 | 0.00 | 0.00 | 49 | 1009.4 |
| 20260504201703 | 27 | 220 | 8.0 | 12.9 | 0.00 | 0.00 | 0.00 | 50 | 1008.8 |
| 20260504201204 | 27 | 244 | 9.7 | 19.3 | 0.00 | 0.00 | 0.00 | 50 | 1008.8 |
| 20260504200903 | 27 | 197 | 1.6 | 25.7 | 0.00 | 0.00 | 0.00 | 49 | 1009.6 |
| 20260504200704 | 27 | 170 | 8.0 | 25.7 | 0.00 | 0.00 | 0.00 | 50 | 1009.1 |
| 20260504200004 | 27 | 202 | 1.6 | 25.7 | 0.00 | 0.00 | 0.00 | 49 | 1009.7 |
| 20260504195704 | 27 | 206 | 8.0 | 20.9 | 0.00 | 0.00 | 0.00 | 49 | 1009.1 |
| 20260504195404 | 27 | 209 | 1.6 | 14.5 | 0.00 | 0.00 | 0.00 | 50 | 1009.6 |
| 20260504195204 | 27 | 168 | 8.0 | 12.9 | 0.00 | 0.00 | 0.00 | 51 | 1009.1 |
| 20260504194524 | 27 | 225 | 1.6 | 17.7 | 0.00 | 0.00 | 0.00 | 49 | 1010.0 |
| 20260504194204 | 27 | 167 | 8.0 | 16.1 | 0.00 | 0.00 | 0.00 | 49 | 1009.5 |
| 20260504193704 | 27 | 286 | 3.2 | 16.1 | 0.00 | 0.00 | 0.00 | 50 | 1009.1 |
| 20260504193604 | 27 | 204 | 1.6 | 20.9 | 0.00 | 0.00 | 0.00 | 50 | 1009.9 |
| 20260504193204 | 26 | 203 | 6.4 | 20.9 | 0.00 | 0.00 | 0.00 | 52 | 1009.6 |
| 20260504192704 | 26 | 154 | 4.8 | 20.9 | 0.00 | 0.00 | 0.00 | 52 | 1009.5 |
| 20260504192204 | 26 | 174 | 3.2 | 19.3 | 0.00 | 0.00 | 0.00 | 51 | 1009.8 |
| 20260504191824 | 27 | 245 | 1.6 | 16.1 | 0.00 | 0.00 | 0.00 | 49 | 1010.5 |
| 20260504191703 | 27 | 245 | 3.2 | 14.5 | 0.00 | 0.00 | 0.00 | 50 | 1009.8 |
| 20260504191205 | 27 | 251 | 4.8 | 16.1 | 0.00 | 0.00 | 0.00 | 51 | 1009.8 |
| 20260504190903 | 27 | 190 | 1.6 | 19.3 | 0.00 | 0.00 | 0.00 | 49 | 1010.6 |
| 20260504190705 | 27 | 169 | 8.0 | 20.9 | 0.00 | 0.00 | 0.00 | 49 | 1009.8 |
| 20260504190204 | 26 | 173 | 14.5 | 22.5 | 0.00 | 0.00 | 0.00 | 49 | 1010.0 |
| 20260504190004 | 27 | 216 | 3.2 | 20.9 | 0.00 | 0.00 | 0.00 | 47 | 1010.6 |
| 20260504185703 | 27 | 205 | 11.3 | 22.5 | 0.00 | 0.00 | 0.00 | 48 | 1010.2 |
| 20260504185403 | 27 | 226 | 1.6 | 16.1 | 0.00 | 0.00 | 0.00 | 47 | 1010.8 |
| 20260504185204 | 27 | 248 | 3.2 | 12.9 | 0.00 | 0.00 | 0.00 | 49 | 1009.8 |
| 20260504184704 | 26 | 152 | 6.4 | 12.9 | 0.00 | 0.00 | 0.00 | 47 | 1010.0 |
| 20260504184503 | 26 | 251 | 1.6 | 16.1 | 0.00 | 0.00 | 0.00 | 47 | 1010.4 |
| 20260504184204 | 26 | 281 | 8.0 | 16.1 | 0.00 | 0.00 | 0.00 | 49 | 1010.2 |
| 20260504183703 | 26 | 254 | 4.8 | 14.5 | 0.00 | 0.00 | 0.00 | 50 | 1010.2 |
| 20260504183603 | 26 | 215 | 1.6 | 22.5 | 0.00 | 0.00 | 0.00 | 50 | 1010.7 |
| 20260504182724 | 26 | 209 | 1.6 | 22.5 | 0.00 | 0.00 | 0.00 | 46 | 1011.0 |
| 20260504182703 | 26 | 204 | 9.7 | 22.5 | 0.00 | 0.00 | 0.00 | 46 | 1010.5 |
| 20260504182204 | 26 | 206 | 4.8 | 9.7 | 0.00 | 0.00 | 0.00 | 49 | 1010.5 |
| 20260504181803 | 25 | 247 | 1.6 | 12.9 | 0.00 | 0.00 | 0.00 | 48 | 1011.2 |
| 20260504181704 | 25 | 216 | 8.0 | 12.9 | 0.00 | 0.00 | 0.00 | 48 | 1010.8 |
| 20260504180704 | 26 | 234 | 4.8 | 24.1 | 0.00 | 0.00 | 0.00 | 45 | 1010.8 |
| 20260504180204 | 26 | 197 | 6.4 | 24.1 | 0.00 | 0.00 | 0.00 | 48 | 1010.8 |
| 20260504175703 | 25 | 232 | 11.3 | 16.1 | 0.00 | 0.00 | 0.00 | 49 | 1010.8 |
| 20260504175204 | 25 | 200 | 1.6 | 16.1 | 0.00 | 0.00 | 0.00 | 52 | 1011.2 |
| 20260504174705 | 25 | 222 | 8.0 | 20.9 | 0.00 | 0.00 | 0.00 | 50 | 1011.2 |
| 20260504174204 | 25 | 190 | 4.8 | 20.9 | 0.00 | 0.00 | 0.00 | 49 | 1011.2 |
| 20260504173703 | 25 | 178 | 4.8 | 19.3 | 0.00 | 0.00 | 0.00 | 48 | 1011.4 |
| 20260504173204 | 25 | 138 | 6.4 | 16.1 | 0.00 | 0.00 | 0.00 | 49 | 1011.5 |
| 20260504172703 | 25 | 176 | 4.8 | 19.3 | 0.00 | 0.00 | 0.00 | 47 | 1011.9 |
| 20260504172204 | 24 | 161 | 3.2 | 19.3 | 0.00 | 0.00 | 0.00 | 48 | 1011.9 |
| 20260504171703 | 25 | 153 | 1.6 | 19.3 | 0.00 | 0.00 | 0.00 | 48 | 1011.9 |
| 20260504170703 | 25 | 201 | 8.0 | 19.3 | 0.00 | 0.00 | 0.00 | 48 | 1012.2 |
| 20260504170204 | 24 | 212 | 12.9 | 22.5 | 0.00 | 0.00 | 0.00 | 47 | 1012.2 |
| 20260504160204 | 23 | 255 | 0.0 | 24.1 | 0.00 | 0.00 | 0.00 | 52 | 1012.9 |
| 20260504150903 | 22 | 185 | 3.2 | 19.3 | 0.00 | 0.00 | 0.00 | 56 | 1013.5 |
| 20260504150704 | 21 | 166 | 17.7 | 20.9 | 0.00 | 0.00 | 0.00 | 56 | 1013.2 |
| 20260504150204 | 21 | 225 | 4.8 | 11.3 | 0.00 | 0.00 | 0.00 | 58 | 1013.2 |
| 20260504141204 | 20 | 237 | 11.3 | 24.1 | 0.00 | 0.00 | 0.00 | 64 | 1013.5 |
| 20260504140903 | 20 | 207 | 1.6 | 22.5 | 0.00 | 0.00 | 0.00 | 64 | 1013.8 |
| 20260504140704 | 20 | 177 | 3.2 | 14.5 | 0.00 | 0.00 | 0.00 | 64 | 1013.5 |
| 20260504140204 | 20 | 197 | 4.8 | 16.1 | 0.00 | 0.00 | 0.00 | 64 | 1013.5 |
| 20260504130704 | 18 | 121 | 3.2 | 12.9 | 0.00 | 0.00 | 0.00 | 70 | 1013.9 |
| 20260504130204 | 18 | 172 | 3.2 | 9.7 | 0.00 | 0.00 | 0.00 | 70 | 1013.9 |
| 20260504120204 | 16 | 217 | 3.2 | 12.9 | 0.00 | 0.00 | 0.00 | 69 | 1013.9 |
| 20260504110704 | 16 | 245 | 3.2 | 9.7 | 0.00 | 0.00 | 0.00 | 72 | 1013.5 |
| 20260504110204 | 16 | 210 | 1.6 | 8.0 | 0.00 | 0.00 | 0.00 | 72 | 1013.5 |
| 20260504081703 | 17 | 188 | 3.2 | 8.0 | 0.00 | 0.00 | 0.00 | 58 | 1014.2 |
| 20260504081204 | 18 | 187 | 1.6 | 8.0 | 0.00 | 0.00 | 0.00 | 58 | 1014.2 |